Simultaneous Nadir Overpasses (SNOs) Predictions

Prediction of SNOs between GOES-14 and AQUA Satellite Orbit:

Table of predicted SNOs for the next 14.0 days since TLE Epoch: 11/11/2023
Index Date Time (GOES-14) GOES-14 Lat,Lon AQUA Lat,Lon Distance(km) Time Diff (sec)
1 11/12/2023 21:11:27 -0.01,-108.58 -0.13,-109.00 47.61 80
2 11/14/2023 20:59:08 -0.02,-108.58 0.68,-105.34 368.69 80
3 11/15/2023 09:17:00 0.00,-108.63 0.36,-110.32 192.00 80
4 11/17/2023 09:04:39 0.01,-108.62 -0.39,-106.64 223.95 80
5 11/17/2023 21:22:39 0.02,-108.57 -0.65,-111.66 351.38 80
6 11/19/2023 21:10:17 0.01,-108.56 0.11,-107.98 64.90 80
7 11/20/2023 09:28:09 -0.03,-108.60 0.90,-112.96 495.83 80
8 11/21/2023 20:55:16 0.01,-108.55 0.92,-104.31 481.77 80
9 11/22/2023 09:13:06 -0.03,-108.59 0.15,-109.28 78.73 80
10 11/24/2023 09:00:43 -0.02,-108.59 -0.66,-105.61 339.00 80
11 11/24/2023 21:18:42 0.04,-108.54 -0.43,-110.61 235.57 80
